Wind_Speed
7 9 2 3 3 5 4 3 4 6 4 6 8 10 10 11 3 5 25 21 25 26 25 22 22 21 22 22 23 23 23 21 21 19 18 16 13 11 10 11 11 11 11 11 11 12 12 13 13
3 2 6 3 4 4 4 3 8 2 13 19 26 21 12 5 13 24 29 23 25 26 24 22 21 21 20 20 20 18 18 18 17 15 13 13 12 11 12 11 12 13 12 12 11 14 13 14 14
9 8 3 2 3 3 2 5 6 2 10 11 6 11 7 10 24 32 27 29 26 25 24 23 21 20 20 19 17 16 15 15 15 15 14 12 11 11 11 12 12 12 12 11 12 13 14 15 15
2 3 3 3 8 4 3 3 6 13 14 24 24 10 14 15 25 27 27 29 26 25 23 22 21 19 19 18 16 15 15 15 14 13 12 12 11 11 10 11 11 11 11 11 11 12 13 14 15
4 5 4 3 1 4 3 15 26 13 11 22 25 12 9 21 25 24 26 25 24 24 22 21 20 19 18 16 15 14 14 14 13 12 12 11 10 9 9 9 9 9 9 9 12 11 12 13 14
7 4 3 1 3 2 2 18 21 20 21 27 23 16 8 29 24 23 27 24 20 22 22 21 19 18 17 16 15 14 13 12 12 11 11 11 8 8 8 7 6 7 7 7 8 9 11 14 13
0 3 1 1 5 5 4 18 15 21 22 14 28 11 20 36 24 25 25 21 22 21 22 22 21 19 16 14 13 13 12 12 11 10 9 8 7 7 6 5 4 4 4 5 5 7 9 11 13
8 2 2 2 6 3 9 11 22 27 12 27 37 9 24 35 32 28 25 21 23 23 20 20 19 17 16 14 12 11 11 10 9 8 6 6 6 5 4 4 4 2 1 1 5 5 6 8 11
14 1 2 5 10 6 17 12 25 20 26 22 14 29 37 37 36 34 29 24 23 21 19 18 18 16 14 12 11 10 9 9 8 8 7 5 4 4 5 4 3 3 1 1 1 3 4 6 8
10 5 7 5 8 9 17 19 16 13 23 13 24 30 38 34 39 37 31 27 24 19 20 17 17 16 14 13 11 11 10 10 8 6 6 5 4 4 4 4 2 2 1 1 1 0 2 4 9
3 6 6 5 12 18 18 14 7 21 9 31 32 37 34 35 40 35 29 23 17 15 21 20 18 16 17 11 10 12 12 10 8 7 4 3 3 3 2 2 3 3 4 4 4 4 6 4 6
5 5 10 8 15 15 10 11 6 13 12 27 28 38 34 33 38 34 30 24 22 18 19 20 15 16 11 10 13 10 9 7 6 4 5 1 1 2 6 4 5 7 7 7 7 6 7 8 12
6 4 15 13 21 20 23 12 10 20 31 30 36 34 33 30 27 32 26 24 21 17 16 18 16 12 14 12 9 9 7 6 4 1 2 3 3 2 3 6 5 6 5 4 7 9 9 9 11
18 15 15 15 16 9 15 4 9 22 34 36 36 32 30 28 26 32 30 27 24 18 16 20 19 15 14 12 9 6 7 5 6 4 3 2 3 5 6 5 5 5 7 7 9 8 9 9 11
19 6 4 10 7 4 22 7 5 24 34 34 35 32 28 21 21 30 31 30 25 21 21 19 22 17 18 16 11 7 5 8 8 7 7 4 4 13 6 6 4 3 6 7 7 6 9 10 8
4 6 4 4 8 1 8 3 7 20 32 29 33 32 30 29 24 25 31 33 28 25 27 22 25 22 17 17 16 15 10 5 3 7 10 7 8 6 5 8 4 3 7 3 7 10 9 7 6
7 2 2 2 4 3 6 6 11 24 32 28 30 33 33 30 29 28 30 34 29 28 25 25 25 20 16 15 22 20 14 7 3 6 8 8 9 7 5 4 1 3 2 3 7 5 9 5 5
2 2 4 1 7 3 4 9 6 20 29 27 32 33 34 32 31 28 30 32 28 27 26 26 25 22 16 10 14 21 17 14 9 9 8 9 9 6 4 4 1 1 2 3 8 7 5 7 5
3 4 3 2 9 10 9 11 11 11 15 22 28 31 35 33 29 31 27 30 26 25 29 29 27 22 19 18 13 20 21 14 12 11 9 9 5 7 5 1 2 2 3 2 4 6 3 4 4
11 6 5 4 9 6 12 20 15 12 10 24 22 29 31 32 31 33 30 32 30 28 25 29 27 23 20 20 14 13 19 17 14 13 9 8 8 5 3 3 6 5 4 4 5 4 1 2 4
13 5 7 9 12 11 11 6 6 7 11 19 23 33 33 35 35 36 34 34 31 30 24 26 27 25 24 19 16 14 17 17 15 13 10 8 7 6 5 6 5 5 3 4 5 4 1 1 3
9 12 7 10 6 6 5 5 2 4 2 4 20 34 36 37 34 39 36 36 35 33 27 21 26 27 26 21 19 18 20 18 15 12 10 8 5 9 9 6 4 4 2 1 2 4 3 2 4
14 10 3 4 6 3 5 4 5 2 7 10 18 35 27 34 35 39 41 40 40 35 31 25 24 27 27 27 23 19 20 16 13 12 10 7 10 10 6 4 4 2 2 2 3 4 8 7 5
4 4 8 5 4 5 3 5 5 6 10 10 23 19 22 20 33 34 40 40 42 39 35 30 27 28 29 28 25 24 20 20 17 14 14 12 13 11 6 4 5 4 2 1 4 5 7 7 7
8 7 4 5 4 7 4 2 10 14 10 12 15 13 10 22 20 30 41 46 48 43 41 36 33 31 31 31 28 28 23 21 20 17 14 13 15 13 7 6 6 3 3 3 1 2 3 5 8
4 8 6 5 3 6 4 5 6 8 1 7 7 16 11 12 23 36 41 45 45 45 43 38 37 34 32 31 26 29 26 24 22 19 19 15 14 13 9 7 5 4 3 2 1 3 4 7 8
3 2 7 4 2 4 3 6 7 3 3 2 5 24 21 22 6 16 39 42 43 46 45 39 39 36 32 28 26 29 29 25 20 18 19 18 17 16 12 7 7 6 2 1 3 4 6 8 7
6 4 3 4 1 3 5 3 4 6 5 7 8 15 17 27 37 35 42 36 35 48 48 42 38 36 32 27 26 26 29 29 23 19 17 18 20 18 15 11 10 6 4 3 6 8 6 7 4
2 1 5 6 5 4 1 5 7 10 8 9 11 24 29 28 33 40 39 34 27 42 51 44 41 37 34 28 26 26 27 24 24 22 20 16 18 20 17 15 12 7 4 6 8 6 5 4 4
6 8 7 5 5 2 4 5 2 9 7 15 22 24 20 15 11 27 40 37 34 43 50 47 42 37 33 29 27 26 25 22 25 20 15 16 18 21 19 17 12 7 4 7 7 4 3 3 3
Wind_Direction
146 135 164 243 55 49 1 45 171 121 92 74 94 106 112 40 145 158 143 154 163 150 146 144 143 139 136 133 132 131 132 134 139 144 147 143 143 139 133 129 126 125 112 112 123 133 135 130 132
78 71 42 8 78 68 301 299 58 120 141 108 81 84 58 78 93 134 148 161 161 152 149 145 142 140 135 135 134 136 138 142 144 142 139 138 137 137 131 128 118 121 122 121 120 132 137 133 135
64 34 50 50 93 116 149 57 131 120 150 143 99 59 70 110 117 139 145 155 159 153 150 146 146 144 141 140 140 138 138 135 131 129 128 131 135 132 132 128 122 118 129 128 126 131 136 137 143
122 50 21 55 93 344 183 139 134 100 94 97 105 76 103 143 141 147 145 155 155 153 152 149 150 149 145 141 139 138 140 133 128 124 133 133 132 129 129 125 123 124 127 138 142 135 138 144 150
41 47 45 85 4 168 288 93 130 132 91 101 114 112 102 149 134 140 147 152 155 151 152 150 152 151 148 145 143 144 142 136 132 133 131 134 133 131 129 125 125 130 131 136 140 140 143 144 153
41 173 96 158 152 239 342 121 125 115 118 114 109 110 122 141 143 146 146 144 149 151 152 152 154 153 150 149 147 144 140 139 135 134 134 133 135 125 126 130 134 136 144 148 154 150 143 150 155
342 97 52 204 138 177 170 134 138 138 135 136 130 119 146 149 157 154 150 144 149 153 156 156 156 155 151 154 148 142 143 139 135 131 130 134 134 125 120 126 130 145 150 155 160 164 161 159 160
218 336 1 127 115 32 172 149 145 147 151 139 135 154 163 157 165 165 154 155 160 156 158 160 158 158 155 154 148 145 141 136 133 130 131 136 121 115 113 127 102 84 71 236 203 186 177 178 176
192 342 218 157 130 179 127 120 162 152 140 160 170 157 157 163 172 161 161 159 159 160 162 161 158 155 152 149 143 140 128 119 115 108 102 131 117 140 131 117 100 89 63 14 146 209 219 211 200
175 184 168 167 147 155 149 142 136 141 153 121 124 147 153 162 166 163 164 158 157 166 167 164 161 156 147 140 137 130 122 116 119 114 100 112 127 134 140 136 124 89 236 309 211 223 261 234 214
209 158 172 159 156 145 148 149 111 121 142 144 145 156 163 159 168 172 171 165 159 154 167 162 160 150 146 128 139 134 121 132 108 110 117 104 121 129 172 205 247 263 273 260 255 267 280 300 249
51 192 138 124 143 102 121 152 142 143 165 159 154 159 167 169 176 181 173 169 169 163 160 162 160 160 139 144 141 139 138 140 132 116 81 146 304 306 344 309 281 275 275 272 274 276 278 282 267
326 249 133 137 105 116 109 89 102 125 149 157 156 164 173 182 173 186 183 179 176 170 170 178 177 161 140 149 151 147 168 189 199 187 138 26 275 309 284 308 310 251 288 312 284 284 284 284 272
303 224 151 120 98 146 113 47 102 141 148 153 160 168 181 190 195 185 191 185 184 180 187 194 187 170 166 164 173 188 220 199 220 229 199 290 263 328 268 244 277 294 292 307 304 291 303 307 263
335 350 78 29 100 115 113 28 131 150 157 159 165 168 182 191 200 197 192 189 185 185 189 198 193 180 178 184 183 179 197 193 234 248 230 309 274 323 266 283 277 296 303 292 301 317 321 328 316
333 41 72 309 86 88 329 227 247 161 161 165 170 175 185 193 200 202 197 194 185 184 194 195 190 192 195 198 190 201 190 175 255 230 225 248 290 328 275 287 320 299 322 278 357 334 318 323 359
21 100 107 305 55 85 81 278 240 185 167 168 177 182 190 197 203 211 204 196 192 191 189 192 195 200 205 230 222 213 205 203 222 222 245 265 282 286 244 245 21 333 304 357 354 338 337 339 356
213 239 198 101 357 13 345 230 277 188 166 177 184 188 194 202 202 206 197 194 190 197 199 199 203 214 220 223 212 210 198 216 233 243 267 288 285 228 210 182 154 299 331 288 329 327 319 4 356
218 257 227 191 91 353 266 249 233 177 185 179 191 196 199 202 200 196 198 195 193 194 202 210 213 215 213 214 197 191 194 212 224 242 257 314 277 241 229 194 257 284 333 234 314 305 310 312 20
276 193 232 191 198 149 261 275 253 182 191 175 186 203 203 200 197 191 190 194 193 197 201 208 213 216 214 219 215 206 200 209 226 237 249 266 267 258 237 262 249 265 253 314 319 303 320 330 338
276 195 196 209 182 181 218 245 220 47 106 162 178 202 200 202 191 189 191 197 200 201 208 213 214 216 219 217 208 208 203 212 222 233 237 255 248 225 223 231 250 245 271 322 323 342 262 230 37
259 262 201 235 143 225 169 262 50 80 37 242 180 206 201 199 196 192 198 201 208 213 211 214 215 219 220 214 211 205 200 216 228 237 245 265 226 201 207 205 257 221 271 63 129 72 62 71 191
240 241 186 134 172 167 193 92 275 203 180 231 224 224 203 196 198 196 204 213 216 215 213 212 211 213 214 214 217 216 217 225 227 239 243 239 202 200 199 221 241 218 192 164 111 84 51 51 54
242 45 35 54 52 348 234 121 263 204 199 207 230 221 214 231 204 205 215 217 219 216 215 214 214 214 216 216 216 216 214 224 225 225 218 221 204 202 195 243 230 200 184 139 101 67 38 36 27
68 59 1 354 6 233 67 84 235 210 222 211 204 62 243 215 209 207 216 214 220 215 217 217 215 213 215 216 220 217 214 216 225 217 215 213 209 198 200 215 197 187 161 134 174 13 1 351 345
207 141 149 204 220 270 332 232 257 243 14 231 71 93 113 172 180 197 212 213 223 219 216 218 217 213 214 213 217 217 218 214 219 220 225 215 216 199 202 196 188 151 154 144 348 279 308 329 336
264 126 183 142 84 43 278 306 321 67 86 94 118 117 152 155 161 217 214 216 215 222 219 218 218 216 214 214 213 215 219 219 221 216 209 219 214 207 205 195 184 173 199 271 271 281 301 324 330
144 171 53 13 24 311 300 253 237 270 226 195 191 183 182 169 197 220 224 225 226 225 225 218 219 219 214 213 213 214 219 224 230 222 221 225 218 218 201 194 187 198 245 284 296 300 309 326 340
317 336 63 115 137 177 224 273 218 212 219 167 188 214 198 217 212 218 222 237 233 225 225 218 215 217 213 212 212 211 214 217 217 219 219 230 219 203 197 195 192 201 247 286 305 303 323 331 352
168 200 134 119 248 240 145 264 356 189 217 164 194 204 223 243 270 250 228 230 238 218 219 217 211 215 212 211 210 214 210 207 206 206 230 206 199 196 192 192 198 198 262 296 306 295 329 354 48
Height
1498 1498 1496 1497 1506 1505 1512 1506 1493 1499 1503 1502 1497 1497 1504 1506 1508 1527 1522 1527 1531 1533 1536 1539 1541 1542 1544 1545 1547 1548 1549 1551 1552 1553 1555 1555 1556 1557 1558 1559 1558 1559 1559 1559 1560 1560 1560 1559 1560
1496 1496 1496 1496 1510 1520 1519 1502 1503 1497 1500 1501 1500 1501 1504 1513 1511 1515 1521 1528 1532 1533 1536 1539 1541 1544 1545 1547 1548 1550 1551 1552 1553 1554 1555 1556 1557 1558 1559 1560 1560 1560 1560 1560 1561 1561 1562 1561 1561
1498 1497 1497 1502 1514 1521 1515 1506 1503 1502 1500 1497 1501 1505 1510 1517 1517 1518 1523 1528 1533 1535 1538 1540 1543 1545 1546 1548 1550 1551 1553 1553 1554 1555 1556 1557 1559 1559 1560 1560 1561 1562 1562 1561 1562 1563 1562 1563 1563
1497 1501 1502 1510 1516 1507 1501 1498 1499 1503 1505 1498 1501 1510 1517 1518 1517 1521 1525 1529 1533 1537 1539 1542 1544 1546 1547 1549 1550 1552 1553 1554 1554 1556 1557 1559 1561 1561 1561 1561 1562 1563 1564 1564 1563 1564 1564 1564 1564
1500 1501 1512 1515 1512 1502 1500 1497 1502 1502 1502 1505 1505 1515 1518 1522 1522 1524 1527 1531 1534 1537 1540 1542 1545 1547 1548 1549 1551 1553 1554 1555 1556 1557 1559 1561 1562 1562 1562 1562 1563 1563 1564 1564 1564 1565 1566 1566 1565
1499 1499 1512 1522 1513 1502 1499 1500 1502 1502 1504 1507 1510 1514 1522 1523 1524 1527 1530 1533 1536 1538 1541 1543 1546 1548 1549 1551 1552 1554 1555 1557 1558 1559 1560 1562 1562 1563 1563 1563 1564 1565 1565 1565 1565 1565 1566 1567 1566
1504 1502 1508 1509 1510 1507 1500 1501 1501 1501 1504 1509 1509 1515 1524 1525 1526 1528 1532 1534 1536 1539 1542 1544 1546 1548 1550 1552 1553 1555 1557 1558 1559 1560 1561 1561 1562 1563 1563 1564 1564 1565 1566 1566 1566 1565 1566 1567 1567
1503 1507 1503 1504 1511 1510 1498 1500 1502 1502 1507 1508 1509 1516 1521 1523 1527 1529 1533 1536 1538 1539 1542 1544 1546 1548 1550 1553 1555 1556 1557 1558 1560 1560 1561 1561 1562 1563 1563 1564 1565 1565 1566 1566 1566 1566 1566 1566 1567
1502 1510 1515 1501 1503 1502 1497 1497 1501 1501 1504 1506 1506 1510 1517 1522 1526 1532 1535 1539 1540 1542 1543 1545 1547 1549 1551 1553 1555 1557 1559 1559 1560 1561 1561 1562 1562 1562 1563 1564 1564 1565 1565 1566 1566 1566 1566 1566 1566
1497 1511 1498 1489 1490 1495 1494 1494 1499 1503 1508 1510 1512 1517 1521 1524 1527 1531 1534 1537 1540 1542 1544 1546 1548 1550 1552 1554 1555 1557 1559 1560 1561 1561 1561 1562 1562 1562 1563 1563 1564 1564 1565 1565 1565 1565 1564 1563 1564
1488 1495 1488 1488 1488 1489 1493 1497 1499 1503 1511 1507 1510 1516 1522 1525 1529 1531 1533 1535 1538 1542 1545 1547 1549 1551 1553 1555 1556 1558 1559 1560 1561 1561 1562 1562 1562 1562 1563 1563 1563 1563 1563 1563 1563 1563 1562 1562 1563
1492 1486 1481 1485 1488 1491 1495 1498 1499 1500 1505 1509 1511 1515 1520 1526 1528 1530 1533 1536 1538 1542 1546 1547 1550 1551 1554 1555 1557 1558 1560 1561 1561 1561 1561 1561 1562 1561 1562 1561 1560 1560 1560 1561 1561 1560 1560 1559 1560
1487 1486 1481 1484 1487 1490 1493 1497 1496 1500 1505 1510 1515 1520 1522 1525 1529 1531 1532 1536 1539 1542 1545 1547 1549 1551 1553 1555 1557 1559 1559 1560 1561 1560 1560 1560 1560 1561 1561 1559 1558 1557 1558 1557 1558 1557 1557 1556 1556
1486 1484 1482 1485 1489 1496 1493 1498 1497 1506 1506 1510 1513 1519 1523 1525 1528 1531 1532 1535 1538 1540 1542 1545 1548 1550 1552 1554 1556 1558 1558 1559 1559 1559 1559 1560 1560 1561 1560 1557 1557 1557 1556 1555 1556 1555 1554 1553 1551
1486 1485 1486 1491 1488 1495 1491 1507 1504 1505 1507 1509 1511 1514 1520 1524 1526 1528 1531 1534 1536 1539 1541 1544 1547 1550 1552 1553 1556 1557 1557 1557 1557 1559 1561 1561 1560 1558 1557 1556 1555 1556 1554 1554 1554 1554 1552 1550 1549
1490 1490 1505 1495 1490 1498 1502 1519 1500 1503 1504 1508 1510 1513 1516 1518 1523 1526 1528 1532 1536 1538 1540 1543 1547 1550 1552 1554 1556 1557 1557 1558 1557 1559 1558 1557 1557 1556 1555 1555 1555 1554 1555 1554 1553 1552 1551 1549 1547
1501 1517 1509 1497 1489 1494 1504 1518 1495 1498 1499 1504 1507 1508 1511 1514 1517 1521 1525 1529 1532 1535 1538 1541 1545 1548 1551 1553 1554 1556 1557 1556 1557 1557 1556 1556 1556 1555 1554 1554 1553 1552 1552 1552 1551 1551 1551 1549 1547
1513 1517 1506 1504 1498 1499 1502 1506 1498 1497 1496 1500 1502 1505 1507 1510 1513 1516 1521 1527 1531 1533 1536 1540 1543 1547 1550 1551 1551 1553 1556 1555 1555 1556 1556 1556 1555 1554 1553 1553 1552 1551 1551 1550 1550 1550 1550 1549 1545
1500 1504 1503 1495 1492 1499 1498 1498 1493 1498 1498 1498 1499 1502 1505 1507 1511 1514 1519 1523 1528 1533 1535 1537 1541 1544 1546 1548 1549 1551 1553 1553 1553 1555 1555 1554 1554 1553 1552 1551 1551 1550 1549 1549 1549 1550 1550 1548 1546
1495 1504 1506 1494 1488 1496 1497 1494 1491 1488 1491 1490 1497 1499 1503 1506 1510 1512 1514 1521 1523 1527 1533 1536 1538 1541 1543 1546 1548 1550 1551 1551 1552 1553 1554 1553 1551 1551 1550 1550 1550 1550 1548 1548 1549 1549 1549 1548 1546
1494 1503 1501 1497 1491 1484 1488 1502 1495 1493 1492 1490 1491 1492 1492 1500 1503 1509 1511 1515 1520 1523 1528 1533 1535 1539 1541 1544 1547 1548 1549 1550 1550 1551 1552 1552 1551 1550 1549 1550 1550 1549 1548 1548 1548 1549 1548 1548 1546
1509 1478 1484 1485 1496 1516 1487 1531 1501 1500 1497 1492 1487 1478 1484 1492 1501 1503 1509 1514 1517 1519 1524 1529 1532 1536 1539 1542 1544 1545 1547 1547 1548 1550 1551 1550 1550 1549 1550 1550 1550 1550 1549 1548 1548 1547 1546 1545 1545
1487 1472 1475 1479 1497 1503 1497 1514 1502 1497 1496 1493 1484 1478 1484 1491 1495 1499 1502 1508 1512 1517 1521 1525 1529 1532 1535 1538 1541 1543 1545 1546 1548 1549 1549 1549 1549 1549 1549 1549 1549 1549 1549 1548 1547 1547 1546 1546 1546
1464 1471 1482 1489 1500 1521 1498 1506 1512 1502 1486 1484 1478 1480 1487 1490 1494 1496 1502 1507 1511 1514 1517 1521 1523 1527 1531 1534 1537 1540 1542 1544 1545 1547 1547 1547 1548 1549 1548 1548 1549 1549 1548 1547 1546 1546 1546 1547 1547
1472 1496 1534 1529 1535 1530 1501 1503 1493 1471 1469 1466 1471 1486 1486 1489 1493 1494 1497 1499 1504 1509 1512 1515 1519 1523 1527 1531 1534 1536 1539 1542 1543 1544 1545 1545 1547 1548 1548 1549 1549 1550 1549 1547 1546 1547 1547 1547 1546
1476 1492 1530 1537 1542 1525 1500 1511 1484 1464 1467 1473 1482 1483 1487 1491 1484 1485 1485 1491 1498 1500 1505 1509 1514 1519 1523 1527 1530 1533 1535 1538 1540 1541 1543 1544 1545 1548 1549 1550 1550 1550 1550 1549 1548 1549 1547 1546 1545
1475 1491 1485 1508 1513 1529 1512 1490 1468 1461 1469 1471 1476 1478 1479 1481 1484 1489 1486 1483 1490 1494 1498 1503 1510 1515 1518 1522 1526 1529 1532 1534 1535 1538 1541 1543 1545 1547 1548 1549 1550 1551 1551 1551 1550 1549 1548 1547 1545
1466 1469 1500 1517 1524 1524 1520 1501 1499 1473 1473 1474 1472 1472 1473 1472 1463 1467 1476 1481 1484 1488 1493 1500 1506 1510 1514 1518 1522 1525 1528 1531 1534 1538 1540 1541 1543 1544 1547 1548 1549 1550 1552 1551 1550 1550 1548 1546 1544
1474 1481 1489 1501 1515 1529 1535 1513 1472 1468 1464 1471 1470 1466 1466 1461 1462 1467 1473 1477 1484 1487 1488 1494 1501 1506 1510 1514 1518 1521 1523 1527 1531 1534 1536 1539 1541 1543 1545 1546 1547 1549 1550 1550 1549 1548 1547 1546 1544
1461 1472 1486 1515 1507 1514 1519 1506 1460 1461 1460 1466 1467 1464 1463 1465 1469 1470 1475 1477 1482 1482 1485 1491 1497 1502 1506 1508 1513 1517 1521 1524 1527 1533 1536 1538 1542 1542 1543 1544 1545 1546 1548 1549 1548 1547 1546 1546 1545